sat.trackr.live / text

‹ back to catalog

SENTINEL-5P

NORAD 42969 · 2017-064A

PAYLOAD ACTIVE UNKNOWN

§ Identity

Operator
Country
ESA
Launch date
2017-10-13
Launch site
PLMSC
Launch vehicle
Mass (kg)
RCS (m²)

Purposes: earth_obs

External: N2YO · Heavens-Above · Gunter

§ Orbital elements

Epoch: 2026-09-19T05:30:50.543424Z

Period
101.44 min
Inclination
98.7988°
Eccentricity
0.0001145
Mean motion
14.19532043 rev/d
Perigee alt
826.1 km
Apogee alt
827.8 km
Semi-major
7,205.1 km
B*
3.7207e-5
RAAN
203.7133°
Arg perigee
76.1378°
Mean anomaly
283.9925°
Rev number
46,290

§ Raw data

SENTINEL-5P1 42969U 17064A   26262.22975166  .00000034  00000+0  37207-4 0  99932 42969  98.7988 203.7133 0001145  76.1378 283.9925 14.19532043462904

JSON: /api/v1/satellites/42969 · /tle

For live sub-satellite position, see the globe view (requires WebGL).

§ Visibility from observer

Set your observer location to see the next 7 days of passes ≥ 10°. The values pass through the URL so the page stays shareable.

No JS? Fill the form by hand. The geolocation button needs JavaScript.